Weather in Roberval

Canada     48°31′01″N   72°13′29″W
temp.,
°C
wind,
m/s
gust,
m/s
humid.,
%
clouds,
%
prec.,
mm/h
press.,
hPa
HPBL,
m
25 may, wed
wed2523:00+10sw466113 0.0 102552
02:00+8sw47714 0.0 102588
05:00+8sw48702 0.0 1025128
08:00+12wsw476128 0.0 1026255
11:00+13ne356092 0.0 1026767
14:00+14sse2457100 0.0 1025478
17:00+15nne3461100 0.0 1025499
20:00+12ene0074100 0.0 102510
26 may, thu
thu2623:00+11ssw3373100 0.0 102515
02:00+10sw0177100 0.0 102410
05:00+9e2283100 0.0 102313
08:00+10e2282100 0.0 1022103
11:00+10ese2696100 2.8 1019298
14:00+10se51098100 11.9 1014434
17:00+11s51292100 4.5 1011478
20:00+11ssw51193100 5.3 1009374
27 may, fri
fri2723:00+12sw51195100 1.0 1008310
02:00+13ssw4997100 1.0 1006236
05:00+13ssw51097100 1.6 1004264
08:00+13ssw4797100 6.6 1003159
11:00+13ssw3597100 5.9 1003126
14:00+11nw4699100 11.4 1004154
17:00+10nw4599100 1.1 1005126
20:00+10n1298100 1.3 100615
28 may, sat
sat2823:00+10sse2299100 0.3 100547
02:00+10nnw1499100 3.1 1005195
05:00+9wnw2398100 0.1 100699
08:00+9w3591100 0.1 1007275
11:00+10wnw3684100 0.1 1008449
14:00+10wnw4780100 0.2 1008582
17:00+13nnw487038 0.1 1009788
20:00+10se23872 0.1 101136
29 may, sun
sun2923:00+8ssw349099 0.0 101147
02:00+10sw4881100 0.0 1012123
05:00+9wsw3577100 0.0 101370
08:00+12wsw147488 0.0 1015158
11:00+14nne3569100 0.0 1016646
14:00+13se227799 0.0 1016117
17:00+15s3473100 0.0 101640
20:00+15ssw227498 0.0 101713